RH
9 8 8 8 8 8 7 7 7 6 6 7 17 10 22 23 20 23 32 9 6 8 10 9 11 12 18 20 24 33 55 52 43 37 30 23 36 37 36 56 46 43 57 64 65
9 8 8 8 8 7 6 6 6 6 6 6 18 12 17 21 30 39 7 7 7 8 11 13 9 10 16 16 18 28 45 39 31 33 31 25 28 33 46 50 52 56 52 61 64
9 8 8 7 7 7 6 6 6 5 6 6 20 14 13 21 48 21 9 8 9 10 10 7 8 10 14 14 15 24 27 26 27 27 28 34 35 38 47 58 53 56 55 60 65
11 9 8 7 6 6 6 5 5 5 5 6 21 14 12 31 10 10 9 10 11 11 11 9 10 14 15 14 11 24 19 22 28 30 27 31 34 31 43 49 44 45 52 56 62
12 10 8 7 6 5 5 4 5 5 5 6 21 14 31 38 24 4 5 7 9 11 12 10 12 15 16 12 11 18 21 22 24 26 28 30 32 39 45 43 40 40 45 54 59
15 12 9 8 6 5 5 4 4 4 5 7 21 15 42 20 5 6 8 10 9 12 9 10 11 13 12 10 10 17 22 24 25 30 30 30 32 31 46 43 43 42 49 48 52
19 16 11 8 6 6 5 4 4 4 5 14 20 40 56 16 9 11 12 10 8 9 8 8 8 11 10 10 10 17 24 21 27 29 33 32 41 40 41 43 47 47 47 47 48
21 18 13 9 7 6 5 4 4 4 12 29 26 60 37 12 17 8 8 10 9 8 7 4 7 10 9 9 10 15 18 26 25 28 31 38 55 40 41 45 48 47 46 46 48
19 16 14 10 8 6 5 4 4 23 42 28 51 55 41 20 22 9 10 10 7 8 7 6 6 9 10 13 15 18 21 26 25 24 32 39 52 39 36 41 45 45 45 45 48
39 16 12 10 8 7 5 4 17 52 45 58 60 44 28 20 16 10 10 10 6 5 5 5 8 16 19 18 20 19 25 22 26 23 27 42 47 40 38 40 41 42 41 43 45
38 33 12 10 8 9 7 8 24 36 57 36 28 25 18 14 15 10 9 9 6 6 8 8 12 16 18 16 13 16 23 24 21 18 40 42 46 42 40 41 43 45 47 46 47
43 33 23 9 6 7 27 40 14 19 30 24 29 27 19 17 22 14 8 13 8 8 9 10 16 15 15 15 14 13 17 23 21 18 26 44 46 40 40 43 43 46 49 48 55
56 41 27 10 6 33 23 18 16 18 31 20 17 16 15 16 19 16 10 12 8 9 11 13 12 13 15 16 16 14 22 22 21 20 27 40 48 47 41 38 38 41 44 44 56
55 45 36 13 15 26 25 13 12 16 31 25 19 16 15 15 16 11 8 10 7 8 10 11 9 13 16 16 14 15 12 16 22 22 37 31 58 49 40 39 37 40 44 45 52
54 40 34 33 43 66 8 11 6 20 48 18 18 12 14 16 12 9 7 7 9 8 10 11 11 12 14 14 11 12 10 10 23 23 30 33 49 39 44 44 41 40 40 41 46
48 28 58 37 57 8 12 6 18 32 46 24 12 15 13 14 12 9 7 6 7 8 9 10 10 11 11 10 9 8 8 12 19 26 34 33 34 45 49 34 30 34 38 36 43
43 14 49 81 41 14 14 20 35 42 22 18 13 13 12 14 13 12 8 8 9 14 13 11 9 9 9 10 9 8 13 18 17 22 22 21 36 29 38 28 27 31 37 35 41
35 15 15 20 9 15 24 23 43 28 21 16 16 14 14 13 13 12 11 10 10 11 14 14 14 10 8 9 10 11 13 23 21 29 22 20 20 14 32 27 26 25 31 33 40
32 22 47 18 19 28 31 31 31 30 20 17 16 16 16 11 13 14 14 10 8 11 12 17 16 10 8 7 9 10 16 16 22 23 27 24 20 22 27 30 26 26 31 33 38
84 75 58 26 26 34 34 25 25 18 16 16 20 17 19 16 15 16 15 10 9 9 9 11 13 10 8 8 9 8 12 16 25 23 22 25 23 30 37 37 33 30 31 32 35
73 70 24 28 28 38 30 28 16 11 10 15 17 18 16 16 13 15 13 9 8 8 10 9 14 10 10 10 11 15 15 18 21 26 26 26 28 28 35 37 39 35 29 33 36
93 54 33 30 42 46 38 19 12 10 10 11 13 14 16 14 14 14 12 9 7 7 9 10 14 12 10 11 9 14 15 20 23 20 27 29 29 24 29 32 31 32 33 36 31
99 85 16 23 49 45 37 25 17 14 11 12 13 11 12 14 18 16 16 11 8 7 8 9 15 15 15 14 11 12 14 20 23 28 27 30 30 24 22 27 26 28 27 32 37
99 85 51 40 35 33 41 36 28 20 18 16 14 12 13 16 17 18 16 12 10 7 18 13 15 13 14 18 14 12 13 17 19 26 27 27 21 23 26 28 28 30 31 38 43
98 84 44 55 46 38 39 39 34 32 24 21 19 25 29 25 21 22 27 25 16 15 15 9 14 20 15 11 14 10 11 17 16 17 18 17 24 28 33 33 31 30 32 34 36
94 70 66 58 47 42 35 34 29 24 26 24 32 31 31 30 31 31 28 28 25 22 14 18 16 17 11 13 10 9 11 14 14 16 17 19 25 28 27 29 32 27 29 32 37
75 68 79 63 54 47 43 40 28 23 32 36 38 34 34 27 24 26 28 28 25 24 22 20 22 23 18 16 15 16 14 12 13 20 14 20 17 26 29 29 29 27 26 27 28
Wind_Speed
24 26 27 28 27 27 27 28 28 27 29 30 24 23 20 14 14 12 7 20 8 11 9 16 13 11 8 3 4 4 5 3 5 7 3 7 11 12 8 16 10 4 12 21 32
24 26 27 28 28 28 28 28 29 28 30 30 22 20 18 15 12 13 34 29 20 17 10 7 5 1 2 4 6 5 5 11 6 4 7 8 18 13 9 15 13 17 17 28 32
26 26 27 28 29 29 29 29 29 29 29 30 21 19 14 12 4 9 10 12 21 17 12 11 11 1 5 7 7 7 11 9 9 6 10 8 8 2 19 14 26 23 23 26 29
28 28 28 28 29 30 30 30 30 29 30 28 20 17 10 3 5 4 8 6 23 18 13 5 3 3 3 3 4 5 11 18 8 9 9 8 7 6 8 11 21 21 23 24 22
28 29 29 29 29 30 31 31 31 30 31 25 18 14 3 1 11 23 20 13 19 21 16 5 1 2 4 3 4 16 13 14 14 10 10 8 7 9 14 21 19 20 21 20 19
30 29 30 30 30 31 32 33 33 33 31 21 13 7 1 4 9 8 15 7 17 23 11 8 5 5 6 5 3 12 24 21 17 10 7 17 12 8 17 20 19 18 13 15 15
31 31 31 31 32 32 33 34 34 34 30 15 6 2 2 17 5 9 7 12 23 23 5 10 18 2 5 10 6 25 20 13 13 11 7 16 7 10 20 20 20 16 13 11 11
32 31 32 32 33 34 35 35 37 32 18 6 3 3 7 11 13 19 15 12 18 21 17 19 11 4 5 6 7 8 14 8 7 14 9 10 6 12 21 20 17 18 16 15 12
33 34 32 33 34 36 38 36 35 14 3 3 2 3 10 14 4 17 15 11 16 19 20 17 6 7 5 1 5 5 8 12 6 5 9 6 8 13 15 17 17 17 17 16 13
34 34 35 35 35 37 39 37 12 2 4 1 3 3 7 4 7 16 13 24 4 2 4 5 3 2 3 4 4 5 7 17 14 11 3 11 8 19 16 15 17 15 14 14 16
35 35 35 37 36 39 39 11 4 2 3 6 9 8 18 13 18 13 15 8 5 4 6 4 3 6 9 8 6 5 7 12 10 11 8 16 12 19 17 14 15 14 12 13 16
35 36 37 37 36 35 11 2 4 5 11 11 18 16 27 19 9 10 22 7 6 7 5 3 7 11 6 4 6 4 6 8 3 12 7 13 17 19 19 20 18 16 14 14 11
36 36 37 38 37 5 14 11 19 23 5 11 14 12 13 11 15 17 13 8 5 7 6 7 7 7 5 9 4 6 8 9 10 6 6 11 1 8 14 14 13 14 18 18 18
36 37 40 40 6 19 11 13 22 16 3 9 5 8 8 10 7 12 19 9 6 14 6 6 11 8 8 8 7 8 10 14 8 16 7 8 6 6 17 15 11 13 16 17 18
38 38 38 27 19 8 9 19 26 2 4 5 6 5 10 10 3 8 23 5 11 7 8 9 10 10 9 16 7 13 8 12 11 16 7 3 5 10 8 9 11 15 21 20 19
40 39 36 14 12 26 16 27 3 5 7 6 5 6 7 7 7 7 12 6 5 5 4 10 6 8 11 17 9 14 5 6 5 5 2 11 7 4 10 25 21 12 19 19 19
45 35 35 21 7 5 14 5 4 4 5 6 4 6 10 8 9 6 17 13 15 6 8 4 17 10 9 6 7 4 6 2 2 1 6 8 8 11 21 24 18 20 21 22 20
43 38 28 27 21 11 10 4 5 10 16 6 10 14 4 3 9 10 8 13 11 5 3 9 12 15 6 11 11 8 10 6 7 3 5 8 7 11 17 26 20 19 24 22 20
40 27 19 20 13 13 4 3 9 7 3 3 7 7 5 3 3 11 11 17 17 11 14 6 8 8 11 11 11 9 4 10 7 1 3 4 7 6 6 16 16 18 17 20 20
29 13 13 10 18 13 3 7 7 4 7 9 1 4 8 6 7 10 12 13 17 13 9 8 4 8 14 5 7 15 8 3 3 7 4 5 4 6 4 12 12 13 16 18 18
8 5 6 12 22 4 4 8 7 6 11 4 4 9 13 16 14 11 15 13 24 20 12 12 5 13 1 6 10 2 3 4 6 5 6 3 6 7 15 17 17 17 17 13 17
9 4 10 28 3 3 3 5 4 8 8 10 7 15 13 17 21 17 22 17 24 24 12 10 7 13 18 12 8 8 9 7 6 5 1 5 7 5 13 13 16 16 14 12 18
5 4 10 13 3 3 6 8 7 10 10 7 9 15 14 15 16 10 8 10 13 26 20 11 6 8 8 7 3 7 6 6 6 5 7 6 5 1 4 4 8 10 9 9 14
3 4 4 4 3 1 5 7 9 7 11 12 19 21 15 16 8 5 6 6 8 26 30 13 6 11 14 9 5 6 7 7 8 5 6 6 5 4 6 10 7 10 12 10 10
3 4 1 4 3 9 3 5 12 14 7 5 10 4 7 8 6 4 5 7 2 11 22 12 9 7 10 19 10 14 12 9 6 9 9 8 11 10 11 12 13 13 11 10 9
2 3 5 4 7 5 5 2 9 14 7 6 4 8 10 3 6 3 2 3 3 9 7 6 7 9 16 8 8 7 9 14 7 5 2 6 7 11 12 9 8 13 11 9 7
9 9 2 5 5 4 1 8 15 17 5 3 3 4 3 6 14 9 8 6 7 4 4 11 7 5 9 7 6 4 2 6 3 4 6 7 11 10 5 9 10 9 9 10 9
Wind_Direction
356 355 355 354 352 349 347 348 348 347 347 345 344 347 345 330 314 285 243 247 246 253 272 267 286 282 266 260 129 119 100 237 224 162 192 169 126 154 120 134 161 187 142 159 163
351 350 350 351 349 346 345 344 345 345 345 342 339 344 344 332 317 254 270 264 252 244 254 228 260 235 162 254 175 169 138 199 231 179 145 142 133 141 131 147 114 117 133 147 155
348 347 346 346 345 344 341 341 342 343 342 341 335 338 343 330 307 247 333 257 223 216 238 249 273 138 188 189 202 211 224 160 205 137 138 119 117 70 134 143 147 152 148 153 154
348 344 342 341 341 340 338 337 338 339 339 337 332 335 337 339 282 230 336 266 197 203 231 238 250 171 264 276 196 138 207 150 182 165 141 159 105 97 144 156 151 146 143 151 158
347 343 339 338 337 336 335 333 335 334 335 331 328 336 356 330 248 264 286 319 190 208 217 210 267 185 241 259 340 204 120 156 153 149 121 119 90 107 118 136 144 141 149 151 158
345 342 339 336 335 333 331 329 329 330 327 322 321 336 322 279 279 301 262 243 188 202 214 187 219 194 281 268 33 145 138 149 141 132 120 118 133 100 137 139 146 154 145 158 164
344 342 339 335 333 331 328 325 328 326 318 306 301 12 265 239 290 294 220 207 196 208 216 217 231 158 348 326 345 142 132 130 150 151 126 101 79 127 146 149 151 156 159 166 169
341 341 339 335 332 329 326 323 325 321 309 275 189 119 248 269 306 259 260 262 220 220 230 251 250 242 200 256 335 142 122 135 216 144 165 97 147 136 149 151 159 165 173 179 184
340 338 337 335 332 329 324 322 323 323 325 147 121 126 269 305 213 236 232 210 209 226 243 268 269 218 296 99 358 322 153 138 161 250 139 110 143 167 160 157 165 176 182 181 184
343 337 334 333 332 331 323 325 328 50 95 88 262 339 270 242 280 211 205 213 172 179 326 221 171 166 41 89 230 227 109 162 170 177 109 139 172 167 173 168 176 179 186 183 182
342 341 333 329 330 332 326 338 358 12 172 226 239 233 274 272 310 203 212 159 159 121 183 244 123 216 233 199 208 217 133 175 195 151 126 158 161 176 177 183 190 186 179 177 178
343 340 336 328 328 324 315 244 223 344 299 246 248 246 255 260 286 259 211 168 146 196 173 304 215 228 227 212 231 234 201 198 217 163 116 167 172 181 181 195 192 185 178 173 159
341 340 338 329 328 346 322 268 328 340 244 260 228 229 239 184 236 251 164 180 151 192 201 184 239 227 219 267 280 285 203 199 186 146 69 128 178 189 204 199 203 197 183 173 164
340 340 340 335 338 326 286 321 327 338 322 283 235 240 213 176 270 221 189 164 204 200 192 199 245 238 231 244 179 268 215 220 161 160 159 176 206 243 197 198 202 186 183 185 173
337 337 334 337 298 301 308 321 330 71 322 252 239 204 147 155 224 204 179 132 200 178 138 229 216 225 237 237 176 241 214 199 168 176 110 185 104 213 137 213 212 198 197 188 181
336 330 327 317 284 280 296 329 351 46 254 289 205 177 109 155 240 181 175 144 180 186 209 212 243 182 221 248 218 245 254 52 55 96 133 205 154 249 188 209 210 219 199 193 186
334 320 310 281 229 274 309 342 62 175 306 273 33 22 177 170 222 167 183 193 205 167 218 294 237 244 210 237 273 168 67 305 342 120 205 192 190 234 207 217 204 198 195 196 188
331 318 305 274 269 265 274 65 209 226 227 279 344 327 267 174 220 217 174 197 222 134 167 216 251 225 214 189 221 210 158 158 200 250 251 141 212 246 200 206 201 196 194 196 184
330 320 290 277 231 194 110 181 205 204 232 323 11 304 260 252 227 210 183 206 211 176 206 172 245 262 223 221 166 238 147 188 138 70 68 259 300 329 205 195 184 184 182 192 189
327 309 277 259 171 143 102 234 227 205 324 329 185 243 281 291 319 209 203 195 208 194 168 219 271 242 253 186 248 190 175 96 0 164 202 281 259 230 199 181 194 189 186 188 189
326 331 304 179 144 64 200 231 267 261 288 258 233 268 274 288 281 277 222 219 196 209 166 195 142 262 56 213 208 78 128 62 121 138 162 224 268 217 199 184 186 200 208 169 183
351 321 80 147 106 192 218 228 254 262 292 288 284 266 269 294 300 274 219 201 193 203 198 195 175 236 248 249 229 164 172 147 139 228 152 160 264 263 183 184 182 201 202 184 186
316 264 282 246 258 256 276 272 263 268 251 254 256 266 277 281 284 239 206 216 215 198 201 195 210 236 303 331 357 162 165 141 108 91 184 140 255 138 53 129 178 168 194 195 179
303 318 309 28 303 344 5 287 285 271 270 280 283 276 288 275 256 279 277 264 197 203 205 163 146 194 224 214 183 194 162 161 142 142 173 203 188 161 183 178 186 178 168 181 178
221 248 243 318 310 324 260 270 294 307 278 256 293 46 341 274 290 329 324 324 286 221 211 160 181 155 213 223 211 203 184 160 153 181 169 217 183 208 192 181 182 177 173 172 187
298 8 343 278 279 289 273 282 324 308 258 278 260 351 346 354 320 315 342 333 307 328 234 177 216 153 227 229 212 164 210 160 153 132 72 160 213 196 198 166 167 180 175 162 193
337 334 80 279 306 316 21 330 309 316 308 66 323 332 17 320 305 244 233 235 241 279 299 153 139 119 214 158 117 74 119 215 245 73 200 169 220 160 163 185 172 161 166 154 149